Content
SEND FEEDBACK

Daily
Averages
Monthly
Summary
United Kingdom

LONDON, ENGLAND


Home > Europe > United Kingdom > England
Elevation: 203 feet     Latitude: 51 09N     Longitude: 000 11W

WEATHER
 
SELECT A DAY
Number of Records: 292,281;   Date Range: 7/1/96 - 7/9/14
 
SHARE

PRINT THIS DATA

[ ← Previous Day ]
WEATHER ALMANAC - FEBRUARY 16, 2013
[ Next Day → ]
[ °C ]   °F
Weather ElementAverageHighLow
Temperature41.1 °F50 °F (12:50 pm)32 °F (10:20 pm)
Dewpoint34 °F37.4 °F (9:50 am)30.2 °F (1:20 pm)
Humidity77.5 %93 % (5:50 am)47 % (1:50 pm)
Barometer30.22 in30.24 in (8:20 am)30.21 in (12:50 am)
Wind Speed1.8 mph5.8 mph (3:20 pm)
Weather ElementAverage
Visibility5.7 mi
Wind DirectionNNE (31.3 °)

Weather ElementTotal
Precipitation---
Heating Degree Days24 (Base 65)
Averaged from 47 records on February 16, 2013
WEATHER CONDITIONS BREAKOUT
WIND DIRECTION BREAKOUT
WEATHER BY HOUR - FEBRUARY 16, 2013
[ °C ]   °F
Local TimeTemperatureDewpointHumidityBarometerVisibilityWind DirectionWind SpeedGust SpeedPrecipitationEventsConditions
12:50 AM39.2 °F33.8 °F81 %30.21 in6.2 miCalmScattered Clouds
1:20 AM39.2 °F33.8 °F81 %30.21 in6.2 miCalmScattered Clouds
1:50 AM37.4 °F33.8 °F87 %30.21 inCalmClear
2:20 AM37.4 °F33.8 °F87 %30.21 inCalmClear
2:50 AM37.4 °F33.8 °F87 %30.21 inVariable2.3 mphClear
3:20 AM37.4 °F33.8 °F87 %30.21 inWest (280°)3.5 mphClear
3:50 AM37.4 °F33.8 °F87 %30.21 inVariable2.3 mphClear
4:20 AM39.2 °F33.8 °F81 %30.21 inCalmClear
4:50 AM37.4 °F33.8 °F87 %30.21 inCalmClear
5:20 AM37.4 °F33.8 °F87 %30.21 inCalmClear
5:50 AM37.4 °F35.6 °F93 %30.21 inCalmClear
6:20 AM37.4 °F35.6 °F93 %30.21 inCalmClear
6:50 AM37.4 °F35.6 °F93 %30.21 inCalmClear
7:20 AM39.2 °F35.6 °F87 %30.21 inCalmClear
7:50 AM39.2 °F35.6 °F87 %30.21 inCalmClear
8:20 AM39.2 °F35.6 °F87 %30.24 inVariable2.3 mphClear
8:50 AM39.2 °F35.6 °F87 %30.24 inSW (220°)2.3 mphClear
9:20 AM41.0 °F35.6 °F81 %30.24 inCalmClear
9:50 AM42.8 °F37.4 °F81 %30.24 inCalmClear
10:20 AM44.6 °F37.4 °F76 %30.24 inCalmClear
10:50 AM46.4 °F35.6 °F66 %30.24 inCalmClear
11:20 AM46.4 °F35.6 °F66 %30.24 inVariable2.3 mphClear
11:50 AM48.2 °F37.4 °F66 %30.24 inCalmClear
12:20 PM48.2 °F37.4 °F66 %30.24 in6.2 miVariable3.5 mphPartly Cloudy
12:50 PM50.0 °F35.6 °F58 %30.24 in6.2 miVariable2.3 mphPartly Cloudy
1:20 PM48.2 °F30.2 °F50 %30.24 in6.2 miVariable2.3 mphScattered Clouds
1:50 PM50.0 °F30.2 °F47 %30.21 in6.2 miVariable3.5 mphPartly Cloudy
2:20 PM48.2 °F30.2 °F50 %30.21 in6.2 miVariable3.5 mphPartly Cloudy
2:50 PM48.2 °F30.2 °F50 %30.21 in6.2 miVariable3.5 mphPartly Cloudy
3:20 PM48.2 °F30.2 °F50 %30.21 in6.2 miSSE (160°)5.8 mphPartly Cloudy
3:50 PM48.2 °F32.0 °F54 %30.21 in6.2 miSE (140°)5.8 mphPartly Cloudy
4:20 PM48.2 °F32.0 °F54 %30.21 in6.2 miSE (140°)5.8 mphPartly Cloudy
4:50 PM46.4 °F32.0 °F57 %30.21 in6.2 miSSE (160°)4.6 mphScattered Clouds
5:20 PM46.4 °F32.0 °F57 %30.21 in6.2 miVariable3.5 mphScattered Clouds
5:50 PM44.6 °F32.0 °F61 %30.21 in6.2 miVariable3.5 mphPartly Cloudy
6:20 PM42.8 °F37.4 °F81 %30.21 in6.2 miSouth (170°)2.3 mphScattered Clouds
6:50 PM42.8 °F37.4 °F81 %30.21 in6.2 miVariable2.3 mphScattered Clouds
7:20 PM41.0 °F37.4 °F87 %30.21 inVariable2.3 mphClear
7:50 PM39.2 °F35.6 °F87 %30.21 inEast (100°)3.5 mphClear
8:20 PM39.2 °F35.6 °F87 %30.21 inVariable2.3 mphClear
8:50 PM37.4 °F35.6 °F93 %30.21 in5.6 miVariable2.3 mph
9:20 PM35.6 °F33.8 °F93 %30.24 in5.6 miVariable2.3 mph
9:50 PM33.8 °F32.0 °F93 %30.24 in5.0 miCalm
10:20 PM32.0 °F30.2 °F93 %30.24 in5.0 miVariable3.5 mph
10:50 PM32.0 °F30.2 °F93 %30.24 in3.7 miEast (100°)2.3 mphFogShallow Fog
11:20 PM32.0 °F30.2 °F93 %30.24 in3.7 miCalm
11:50 PM32.0 °F30.2 °F93 %30.21 in3.7 miCalm
Hourly data recorded from EGKK, located miles away from London, England







STORIES FROM OUR PARTNERS